[Iaude] MPEC S96: 2010 TE [a=0.91,e=0.20,i=5.5,H=25.94]

mpec at marsden.cfa.harvard.edu mpec at marsden.cfa.harvard.edu
Tue Sep 19 22:39:21 EDT 2023


M.P.E.C. 2023-S96                            Issued 2023 September 20, 02:37 UT

     The Minor Planet Electronic Circulars contain information on unusual
         minor planets, routine data on comets and natural satellites,
         and occasional editorial announcements.  They are published
    on behalf of Division F of the International Astronomical Union by the
          Minor Planet Center, Smithsonian Astrophysical Observatory,
                          Cambridge, MA 02138, U.S.A.
			  
             Prepared using the Tamkin Foundation Computer Network

                              MPC at CFA.HARVARD.EDU
            URL https://www.minorplanetcenter.net/    ISSN 1523-6714

                                    2010 TE                                     


                           Revision to MPEC 2010-T10                            

Additional Observations:
     K10T00E  C2023 09 18.37859401 52 17.242+38 00 35.03         19.59GVES096V00
     K10T00E  C2023 09 18.38472901 52 08.036+37 58 23.63         19.39GVES096V00
     K10T00E  C2023 09 18.39696701 51 49.694+37 54 00.68         19.43GVES096V00
     K10T00E mC2023 09 18.46836501 50 03.512+37 27 56.81         19.27GVES096I52
     K10T00E mC2023 09 18.47014801 50 00.910+37 27 17.71         19.45GVES096I52
     K10T00E mC2023 09 18.47167501 49 58.660+37 26 43.44               VES096I52
     K10T00E mC2023 09 18.47184801 49 58.422+37 26 39.80         19.49GVES096I52
     K10T00E 1C2023 09 19.32211701 32 51.169+32 17 39.19         20.22GVES096703
     K10T00E 1C2023 09 19.32759601 32 44.192+32 15 39.82         19.04GVES096703
     K10T00E 1C2023 09 19.33306801 32 37.079+32 13 41.38         19.43GVES096703
     K10T00E 1C2023 09 19.33860901 32 30.044+32 11 40.74         19.03GVES096703
     K10T00E mC2023 09 19.45284501 30 04.374+31 29 47.90         19.18GVES096I52
     K10T00E mC2023 09 19.45301401 30 04.151+31 29 44.27         18.88GVES096I52
     K10T00E mC2023 09 19.45318401 30 03.956+31 29 40.38         18.94GVES096I52
     K10T00E mC2023 09 19.45335401 30 03.726+31 29 36.46         19.07GVES096I52
     K10T00E mC2023 09 19.48505501 29 24.479+31 17 46.03         19.62GVES096I52
     K10T00E mC2023 09 19.48978901 29 18.658+31 15 59.58         19.54GVES096I52
     K10T00E mC2023 09 19.48995901 29 18.449+31 15 55.58         19.22GVES096I52
     K10T00E mC2023 09 19.49467301 29 12.710+31 14 09.78         19.36GVES096I52
     K10T00E KC2023 09 19.81094201 24 03.19 +29 16 50.8                VES096587
     K10T00E KC2023 09 19.81467901 23 59.19 +29 15 33.3          19.5 GVES096587
     K10T00E KC2023 09 19.81504801 23 58.76 +29 15 25.0                VES096587
     K10T00E KC2023 09 19.82083101 23 53.073+29 13 34.47         18.9 GVES096K63
     K10T00E KC2023 09 19.82599001 23 47.392+29 11 45.84         19.4 GVES096K63
     K10T00E KB2023 09 19.83688401 23 36.25 +29 07 32.7          19.1 GVES096I93
     K10T00E KB2023 09 19.83892801 23 34.05 +29 06 49.5          19.4 GVES096I93
     K10T00E KB2023 09 19.84096601 23 31.86 +29 06 07.1          19.6 GVES096I93
     K10T00E KC2023 09 19.86093301 23 08.97 +28 59 21.8          19.0 GVES096203
     K10T00E KC2023 09 19.86094601 23 08.79 +28 59 20.1          19.3 GVES096L06
     K10T00E KC2023 09 19.86419201 23 05.21 +28 58 12.1          19.0 GVES096L06
     K10T00E KC2023 09 19.86514501 23 04.44 +28 58 03.0          19.1 GVES096104
     K10T00E KC2023 09 19.86743901 23 01.65 +28 57 04.0          19.2 GVES096L06
     K10T00E KC2023 09 19.87077701 22 58.18 +28 56 04.6                VES096104
     K10T00E KC2023 09 19.87538501 22 53.06 +28 54 28.0          19.0 GVES096104
     K10T00E KC2023 09 19.87728301 22 50.89 +28 53 38.0          18.9 GVES096203
     K10T00E KB2023 09 19.97950801 20 59.07 +28 17 32.2          18.8 GXES096958
     K10T00E KB2023 09 19.98411601 20 53.73 +28 15 53.0          19.3 GXES096958
     K10T00E KB2023 09 19.98853601 20 48.82 +28 14 19.9          19.1 GXES096958

Observer details:
104 San Marcello Pistoiese.  Observers P. Bacci, M. Maestripieri.  Measurers
    P. Bacci, L. Tesi, G. Fagioli.  0.60-m F4 Reflector + CCD.
203 GiaGa Observatory.  Observers S. Foglia, G. Galli.  Measurer G. Galli.
    0.36-m f/5.76 Schmidt-Cassegrain + CCD.
587 Sormano.  Observers M. Calcagno, F. Manca, A. Testa.  Measurer F. Manca.
    0.5-m f/6.8 reflector + CCD.
703 Catalina Sky Survey.  Observer R. A. Kowalski.  Measurers E. J.
    Christensen, D. Fay, J. B. Fazekas, D. C. Fuls, A. R. Gibbs, A. D. Grauer,
    H. Groeller, J. K. Hogan, R. A. Kowalski, S. M. Larson, G. J. Leonard, D.
    Rankin, R. L. Seaman, A. Serrano, F. C. Shelly, K. W. Wierzchos.  0.68-m
    Schmidt + 10K CCD.
958 Observatoire de Dax.  Observer P. Dupouy.  0.50-m f/4.5 Reflector + CMO.
I52 Steward Observatory, Mt. Lemmon Station.  Observer K. W. Wierzchos.
    Measurers E. J. Christensen, D. Fay, J. B. Fazekas, D. C. Fuls, A. R.
    Gibbs, A. D. Grauer, H. Groeller, J. K. Hogan, R. A. Kowalski, S. M.
    Larson, G. J. Leonard, D. Rankin, R. L. Seaman, A. Serrano, F. C. Shelly,
    K. W. Wierzchos.  1.0-m prime focus + CCD.
I93 St Pardon de Conques.  Observer F. Losse.  0.40-m f/3.7 reflector + CMO.
K63 G. Pascoli Observatory, Castelvecchio Pascoli.  Observer R. Bacci.  0.41-m
    f/3.75 0.41m f/3.2  Newton + CCD.
L06 Sormano 2 Observatory, Bellagio Via Lattea.  Observer G. Ventre.  Measurer
    P. Sicoli.  0.36m Schmidt Cassegrain + CCD.
V00 Kitt Peak-Bok.  Observer R. A. Mastaler.  Measurers M. J. Brucker, C. E.
    Woodward, D. Fay, J. B. Fazekas, D. C. Fuls, A. R. Gibbs, H. Groeller, J.
    K. Hogan, R. A. Kowalski, S. M. Larson, C. Lejoly, G. J. Leonard, R. A.
    Mastaler, R. S. McMillan, D. Rankin, R. L. Seaman, A. Serrano, F. C.
    Shelly, K. W. Wierzchos.  2.25-m reflector + 4x4K mosaic CCD.

First and last observations above in comparison with prediction:
Residuals in seconds of arc (or zero decimals in degrees), reference and Delta-T
230918 V00   19+    1+    230919 958   19+    2+    MPO186357   +0.56 days

Orbital elements:
2010 TE                                                  Earth MOID = 0.0169 AU
Epoch 2023 Sept. 13.0 TT = JDT 2460200.5                Veres                   
M 113.97938              (2000.0)            P               Q                  
n   1.13882867     Peri.   36.57213     -0.78324953     +0.62169944             
a   0.9081630      Node   181.87718     -0.59081405     -0.74590054             
e   0.1981522      Incl.    5.53206     -0.19354310     -0.23900250             
P   0.87           H   25.94          G   0.15           U   2                  
Residuals in seconds of arc
101001 G96  0.5+  0.0     101005 H21  0.3-  0.2-    230919 I52  0.1-  0.1+
101001 G96  0.1+  0.2-    101005 H21  0.6-  0.4-    230919 I52  0.1+  0.0
101001 G96  0.1-  0.1-    101005 H21  0.5-  0.3-    230919 I52  0.1-  0.2-
101001 G96  0.1-  0.3-    101005 H21  0.0   0.0     230919 I52  0.2+  0.0
101001 G96  0.0   0.2-    101005 474  0.4+  0.2-    230919 I52  0.1-  0.0
101001 G96  0.2+  0.2+    101005 474  0.1-  0.1-    230919 I52  0.1-  0.2-
101001 G96  0.3+  0.4-    101005 474  1.3-  0.3-    230919 I52  0.1+  0.2+
101001 H01  0.2+  0.0     101005 474  0.9-  0.2-    230919 587  0.5-  0.0
101001 H21  0.2+  0.1-    101006 H21  0.3+  0.3-    230919 587  0.2-  0.9+
101001 H01  0.1-  0.4+    101006 H21  0.3-  0.5-    230919 587  0.6-  0.4+
101001 H21  0.5-  0.0     101006 H21  0.2-  0.1+    230919 K63  0.3+  1.2+
101001 H01  0.1+  0.1+    101010 291  0.2+  0.8+    230919 K63  0.8-  0.7+
101001 H21  0.0   0.0     101010 291  0.2-  1.1-    230919 I93  0.1-  0.2-
101001 H01  0.2+  0.2-    101010 291  0.1+  0.9-    230919 I93  0.3-  0.6-
101001 G96  0.9-  0.3-    101011 291  0.6+  0.9+    230919 I93  0.3-  0.3-
101001 G96  0.0   0.4-    101011 291  0.5+  0.8+    230919 203  0.1+  0.3-
101001 G96  0.2+  0.1-    230918 V00  0.1+  0.3-    230919 L06  0.1+  0.2-
101001 G96  0.2-  0.5-    230918 V00  0.1+  0.2-    230919 L06  0.1+  0.1+
101002 H21  0.3-  0.2-    230918 V00  0.2+  0.1-    230919 104  0.2-  0.6-
101002 291  0.3-  0.1-    230918 I52  0.2+  0.3-    230919 L06  0.3+  0.3+
101002 291  0.3+  0.3+    230918 I52  0.3+  0.0     230919 104  0.3-  0.6-
101002 H21  0.2+  0.2-    230918 I52  0.0   0.4-    230919 104  0.3-  0.1-
101002 291  0.3+  0.9+    230918 I52  0.2+  0.2-    230919 203  0.1-  0.0
101002 H21  0.2-  0.1-    230919 703  0.0   1.0+    230919 958  0.9+  0.8+
101002 H01  0.6+  0.6-    230919 703  0.8+  0.2-    230919 958  0.7-  0.4-
101002 H01  0.2-  0.1-    230919 703  0.1-  0.4-    230919 958  0.6+  0.5+
101002 H01  0.2+  0.6-    230919 703  1.1+  1.2-
101002 H01  0.1+  0.4-    230919 I52  0.0   0.1-

Ephemeris:
2010 TE                  a,e,i = 0.91, 0.20, 6                   q = 0.7282
Date    TT    R. A. (2000) Decl.     Delta      r    Elong.  Phase     V
2023 08 21    09 48 00.0 +47 14 33   0.09395 0.9364    34.9   141.8    27.8
...
2023 09 05    08 15 31.3 +58 34 14   0.04890 0.9846    59.6   117.9    24.0
...
2023 09 13    04 45 49.0 +60 17 20   0.03018 1.0074    90.9    87.4    21.4
...
2023 09 19    01 39 03.4 +34 15 28   0.02523 1.0228   134.9    44.1    19.7
2023 09 20    01 20 29.3 +28 12 11   0.02577 1.0252   142.9    36.3    19.5
2023 09 21    01 04 45.8 +22 20 20   0.02671 1.0276   150.5    28.8    19.4
...
2023 09 27    00 07 56.4 -03 02 18   0.03851 1.0409   175.5     4.3    19.3
...
2023 10 05    23 37 04.2 -17 00 00   0.06218 1.0562   153.4    25.1    21.2
...
2023 10 20    23 21 23.0 -24 04 40   0.1146  1.0768   132.5    43.0    23.1

A. U. Tomatic                (C) Copyright 2023 MPC           M.P.E.C. 2023-S96





More information about the Iaude mailing list